Location: Amon Carter Post Office
(32.8281°N, 97.0484°W)
Time: 11:01:02
(UTC+00:00)

SL-4 R/B - Pass Details

Date: 10 July 2022
Orbit: 425 x 653 km, 51.6° (Epoch: 07 August)

Event Time Altitude Azimuth Distance (km) Brightness Sun altitude
Rises 09:01:45 0° 332° (NNW) 2,534 5.7 -24.6°
Reaches altitude 10° 09:05:48 10° 16° (NNE) 1,722 5.4 -24.1°
Maximum altitude 09:06:29 10° 26° (NNE) 1,710 5.5 -24.0°
Drops below altitude 10° 09:07:11 10° 36° (NE) 1,745 5.7 -23.9°
Sets 09:11:29 0° 79° (E) 2,713 6.3 -23.3°
